Terminal Aerodrome Forecast
Issued by NWS

Home | Current Version | Previous Version | Text Only | Print | Product List | Glossary On
Versions: 1 2 3 4 5 6 7 8 9 10 11 12 13
000
FTAK31 PAFA 242340
TAFAUN
TAF
PAUN 242340Z 2500/2524 32011KT P6SM VCSH OVC080
     FM250600 10009KT P6SM SCT080
     FM251800 07010KT P6SM BKN100 BKN250=

USA.gov is the U.S. government's official web portal to all federal, state and local government web resources and services.